Parkersburg, WV

4:59 PM EDT on September 19, 2017 (GMT -0400)
Wood County Wilson

Weather History for KPKB - February, 2014

Change the Weather History Date:

Sunday, February 23, 2014

  Actual Average Record
Temperature  
Mean Temperature 40 °F 37 °F  
Max Temperature 51 °F 46 °F 72 °F (1985)
Min Temperature 29 °F 27 °F 0 °F (2015)
Degree Days  
Heating Degree Days 25 28  
Month to date heating degree days 462 708  
Since 1 July heating degree days 3557 3653  
Cooling Degree Days 0 0  
Month to date cooling degree days 0 0  
Year to date cooling degree days 0 0  
Moisture  
Dew Point 30 °F    
Average Humidity 69    
Maximum Humidity 92    
Minimum Humidity 46    
Precipitation  
Precipitation 0.14 in 0.10 in 0.14 in (2014)
Month to date precipitation 1.59 2.20  
Year to date precipitation 3.85 5.15  
Sea Level Pressure  
Sea Level Pressure 30.08 in    
Wind  
Wind Speed 6 mph (NW)    
Max Wind Speed 15 mph    
Max Gust Speed 20 mph    
Visibility 9 miles    
Events Rain , Snow    
T = Trace of Precipitation, MM = Missing Value Source: NWS Daily Summary

Daily Weather History Graph

Daily Weather History Graph

Search for Another Location

Airport or City:

Trip Planner

Search our weather history database for the weather conditions in past years. The results will help you decide how hot, cold, wet, or windy it might be!

Date:

Astronomy

Feb. 23, 2014 Rise Set
Actual Time 7:07 AM EST 6:11 PM EST
Civil Twilight 6:40 AM EST 6:38 PM EST
Nautical Twilight 6:08 AM EST 7:09 PM EST
Astronomical Twilight 5:37 AM EST 7:41 PM EST
Moon 2:02 AM EST (2/23) 12:13 PM EST (2/23)
Length of Visible Light 11h 58m
Length of Day
11h 04m
Last Quarter, 39% of the Moon is Illuminated
Feb 23
Last Quarter
Mar 1
New
Mar 8
First Quarter
Mar 16
Full
Mar 23
Last Quarter

Hourly Weather History & Observations

Time (EST) Temp. Windchill Dew Point Humidity Pressure Visibility Wind Dir Wind Speed Gust Speed Precip Events Conditions
12:53 AM 39.0 °F 35.7 °F 26.1 °F 60% 30.05 in 10.0 mi North 4.6 mph - N/A   Clear
1:53 AM 37.9 °F 32.1 °F 27.0 °F 65% 30.05 in 10.0 mi NE 8.1 mph - N/A   Clear
2:53 AM 37.9 °F - 28.0 °F 68% 30.06 in 10.0 mi Calm Calm - N/A   Clear
3:53 AM 37.9 °F 32.7 °F 28.0 °F 68% 30.06 in 10.0 mi NNE 6.9 mph - N/A   Clear
4:53 AM 37.0 °F - 28.9 °F 73% 30.05 in 10.0 mi Calm Calm - N/A   Clear
5:53 AM 34.0 °F 31.0 °F 28.0 °F 79% 30.06 in 10.0 mi North 3.5 mph - N/A   Clear
6:53 AM 32.0 °F - 27.0 °F 82% 30.06 in 10.0 mi Calm Calm - N/A   Clear
7:53 AM 30.0 °F 23.2 °F 26.1 °F 85% 30.08 in 10.0 mi NNW 6.9 mph - N/A   Clear
8:53 AM 37.9 °F 33.5 °F 30.0 °F 73% 30.09 in 10.0 mi North 5.8 mph - N/A   Clear
9:53 AM 43.0 °F 37.2 °F 30.9 °F 62% 30.06 in 10.0 mi East 10.4 mph - N/A   Clear
10:53 AM 46.0 °F 41.9 °F 30.9 °F 56% 30.08 in 10.0 mi North 8.1 mph - N/A   Clear
11:53 AM 48.9 °F - 30.0 °F 48% 30.06 in 10.0 mi North 5.8 mph - N/A   Partly Cloudy
12:53 PM 50.0 °F - 30.0 °F 46% 30.03 in 10.0 mi WNW 8.1 mph - N/A   Scattered Clouds
1:53 PM 46.9 °F - 30.9 °F 54% 30.03 in 10.0 mi NNW 13.8 mph 19.6 mph N/A   Overcast
2:53 PM 43.0 °F 37.7 °F 32.0 °F 65% 30.05 in 9.0 mi NW 9.2 mph - 0.00 in Rain Light Rain
3:45 PM 39.0 °F 32.8 °F 35.1 °F 86% 30.06 in 6.0 mi NNW 9.2 mph - 0.02 in Rain Light Rain
3:53 PM 39.0 °F 32.8 °F 35.1 °F 86% 30.08 in 8.0 mi NW 9.2 mph - 0.03 in Rain Light Rain
4:45 PM 37.0 °F 31.6 °F 34.0 °F 89% 30.08 in 4.0 mi WNW 6.9 mph - 0.05 in Rain Light Rain
4:53 PM 37.0 °F 31.0 °F 34.0 °F 89% 30.10 in 5.0 mi NNW 8.1 mph - 0.05 in Rain Light Rain
5:53 PM 34.0 °F 28.0 °F 32.0 °F 92% 30.12 in 3.0 mi NW 6.9 mph - 0.04 in Snow Light Snow
6:53 PM 33.1 °F 28.7 °F 30.9 °F 92% 30.11 in 4.0 mi South 4.6 mph - 0.02 in Snow Light Snow
7:22 PM 33.1 °F 30.0 °F 30.9 °F 92% 30.09 in 10.0 mi West 3.5 mph - 0.00 in   Overcast
7:53 PM 33.1 °F 30.0 °F 30.9 °F 92% 30.11 in 10.0 mi WSW 3.5 mph - 0.00 in   Overcast
8:15 PM 33.1 °F 30.0 °F 32.0 °F 96% 30.09 in 10.0 mi SW 3.5 mph - N/A   Overcast
8:53 PM 33.1 °F 27.7 °F 30.9 °F 92% 30.11 in 10.0 mi West 5.8 mph - N/A   Overcast
9:49 PM 33.8 °F 29.6 °F 30.2 °F 87% 30.11 in 10.0 mi West 4.6 mph - N/A   Partly Cloudy
9:53 PM 32.0 °F 26.4 °F 30.0 °F 92% 30.13 in 10.0 mi West 5.8 mph - N/A   Partly Cloudy
10:53 PM 30.9 °F 22.8 °F 24.1 °F 76% 30.14 in 10.0 mi WNW 9.2 mph - N/A   Clear
11:53 PM 28.9 °F 22.8 °F 19.9 °F 69% 30.15 in 10.0 mi WNW 5.8 mph - N/A   Clear